Waarnemingen

Advertentie
Mijn weer
Pertusato, Frankrijk (7770): temperatuur & dauwpunt: 21.05.2020 23:00:00 - 27.05.2020 23:00:00 (CEST)Pertusato, Frankrijk (7770): windsnelheid & windstoten: 21.05.2020 23:00:00 - 27.05.2020 23:00:00 (CEST)Pertusato, Frankrijk (7770): windrichting: 21.05.2020 23:00:00 - 27.05.2020 23:00:00 (CEST)Pertusato, Frankrijk (7770): luchtdruk: 21.05.2020 23:00:00 - 27.05.2020 23:00:00 (CEST)Pertusato, Frankrijk (7770): zicht: 21.05.2020 23:00:00 - 27.05.2020 23:00:00 (CEST)Pertusato, Frankrijk (7770): neerslag: 21.05.2020 23:00:00 - 27.05.2020 23:00:00 (CEST)
Datum & Tijd tt [°C] td [°C] ff [km/u] ff [kn] fx [km/u] fx [kn] dd ppp [hPa] vv [km] rr [mm]
27.05.2020 23:00:00 15,9 6,3 2 1 5 3 NW 1027,4 25 0,0
27.05.2020 22:00:00 17,0 6,2 5 3 11 6 ONO 1027,3 - 0,0
27.05.2020 21:00:00 16,6 7,0 8 4 15 8 ONO 1027,1 - 0,0
27.05.2020 20:00:00 19,5 9,1 11 6 16 9 ONO 1026,9 25 0,0
27.05.2020 19:00:00 19,5 7,2 9 5 26 14 O 1026,9 - 0,0
27.05.2020 18:00:00 20,0 8,0 17 9 40 22 ONO 1027,2 - 0,0
27.05.2020 17:00:00 22,3 8,0 28 15 45 25 NO 1027,2 18 0,0
27.05.2020 16:00:00 23,0 8,3 26 14 54 29 ONO 1027,7 - 0,0
27.05.2020 15:00:00 23,4 7,9 32 17 50 27 ONO 1027,7 - 0,0
27.05.2020 14:00:00 24,0 8,0 25 13 46 25 NO 1028,0 18 0,0
27.05.2020 13:00:00 23,3 7,0 29 16 56 30 NO 1028,5 - 0,0
27.05.2020 12:00:00 22,4 10,5 29 15 46 25 NO 1028,5 - 0,0
27.05.2020 11:00:00 21,6 10,1 31 17 56 30 ONO 1028,3 14 0,0
27.05.2020 10:00:00 20,8 8,8 36 20 58 32 ONO 1028,3 - 0,0
27.05.2020 09:00:00 20,7 8,0 34 18 68 37 ONO 1027,9 - 0,0
27.05.2020 08:00:00 19,9 8,9 37 20 62 34 NO 1027,6 12 0,0
27.05.2020 07:00:00 19,0 7,1 31 17 50 27 NO 1027,0 - 0,0
27.05.2020 06:00:00 18,2 10,1 27 15 51 28 NO 1026,2 - 0,0
27.05.2020 05:00:00 18,6 9,1 34 19 56 30 NO 1025,9 - 0,0
27.05.2020 04:00:00 18,6 9,4 29 16 53 28 NO 1025,5 - 0,0
27.05.2020 03:00:00 18,7 10,8 28 15 46 25 NO 1025,7 - 0,0
27.05.2020 02:00:00 18,5 13,1 26 14 41 22 ONO 1025,7 - 0,0
27.05.2020 01:00:00 18,3 13,8 22 12 35 19 ONO 1026,0 - 0,0
27.05.2020 00:00:00 18,5 15,0 24 13 39 21 ONO 1025,6 - 0,0
26.05.2020 23:00:00 18,0 16,7 13 7 28 15 ONO 1024,8 - 0,0
26.05.2020 22:00:00 18,6 17,1 17 9 26 14 O 1024,2 - 0,0
26.05.2020 21:00:00 18,9 15,8 19 11 29 16 ONO 1023,6 - 0,0
26.05.2020 20:00:00 20,7 16,3 20 11 29 16 ONO 1023,5 35 0,0
26.05.2020 19:00:00 22,5 15,1 16 9 31 17 ONO 1023,2 - 0,0
26.05.2020 18:00:00 23,6 13,2 21 11 34 18 ONO 1023,2 - 0,0
26.05.2020 17:00:00 25,1 12,3 21 12 30 16 ONO 1023,2 20 0,0
26.05.2020 16:00:00 25,7 10,3 20 11 31 17 ONO 1023,5 - 0,0
26.05.2020 15:00:00 25,9 11,6 19 10 34 18 ONO 1023,7 - 0,0
26.05.2020 14:00:00 25,7 12,5 20 11 37 20 O 1024,1 15 0,0
26.05.2020 13:00:00 26,2 11,1 16 9 24 13 O 1024,1 - 0,0
26.05.2020 12:00:00 26,3 10,8 13 7 26 14 ONO 1024,2 - 0,0
26.05.2020 11:00:00 24,8 14,6 13 7 23 12 O 1024,3 - 0,0
26.05.2020 10:00:00 23,0 15,1 11 6 20 11 ONO 1024,1 - 0,0
26.05.2020 09:00:00 21,1 17,1 12 7 19 11 ONO 1023,9 - 0,0
26.05.2020 08:00:00 18,4 17,9 13 7 18 10 ONO 1023,9 12 0,0
26.05.2020 07:00:00 16,4 16,2 12 7 16 9 ONO 1023,8 - 0,0
26.05.2020 06:00:00 15,6 15,3 12 7 16 9 ONO 1023,5 - 0,2
26.05.2020 05:00:00 15,3 14,7 10 5 13 7 ONO 1023,3 12 0,0
26.05.2020 04:00:00 16,0 15,4 10 5 12 6 ONO 1023,3 - 0,0
26.05.2020 03:00:00 16,3 15,2 4 2 8 4 O 1023,4 - 0,0
26.05.2020 02:00:00 16,7 15,4 7 4 8 5 O 1023,4 14 0,0
26.05.2020 01:00:00 17,2 15,9 4 2 9 5 NW 1023,5 - 0,0
26.05.2020 00:00:00 16,5 14,9 5 3 7 4 NW 1023,4 - 0,0
25.05.2020 23:00:00 17,1 16,1 5 3 9 5 ONO 1023,6 - 0,0
25.05.2020 22:00:00 17,4 16,3 8 5 11 6 O 1023,1 - 0,0
25.05.2020 21:00:00 18,1 16,6 8 5 15 8 O 1022,8 - 0,0
25.05.2020 20:00:00 19,4 17,0 11 6 18 10 O 1022,9 23 0,0
25.05.2020 19:00:00 21,3 16,7 13 7 27 14 O 1022,9 - 0,0
25.05.2020 18:00:00 21,9 16,4 22 12 32 17 ONO 1022,9 - 0,0
25.05.2020 17:00:00 23,4 17,2 18 10 29 16 ONO 1023,2 12 0,0
25.05.2020 16:00:00 23,3 16,8 19 11 36 19 O 1023,6 - 0,0
25.05.2020 15:00:00 23,3 16,6 27 15 45 24 ONO 1023,7 - 0,0
25.05.2020 14:00:00 23,7 14,4 30 16 43 23 ONO 1023,9 - 0,0
25.05.2020 13:00:00 23,3 14,8 26 14 40 22 ONO 1024,2 - 0,0
25.05.2020 12:00:00 23,2 18,5 24 13 43 23 ONO 1024,1 - 0,0
25.05.2020 11:00:00 22,4 18,4 24 13 43 23 ONO 1024,3 12 0,0
25.05.2020 10:00:00 21,2 17,6 24 13 45 24 ONO 1024,4 - 0,0
25.05.2020 09:00:00 21,6 16,8 23 12 40 22 ONO 1024,1 - 0,0
25.05.2020 08:00:00 19,5 16,5 13 7 24 13 O 1023,6 12 0,0
25.05.2020 07:00:00 17,2 15,7 6 3 10 5 O 1023,5 - 0,0
25.05.2020 06:00:00 15,6 14,3 4 2 6 3 WZW 1023,1 - 0,0
25.05.2020 05:00:00 15,9 14,6 4 2 6 3 ZZW 1023,0 12 0,0
25.05.2020 04:00:00 15,6 14,1 5 3 9 5 W 1023,2 - 0,0
25.05.2020 03:00:00 15,8 14,2 8 5 12 6 W 1023,4 - 0,0
25.05.2020 02:00:00 16,1 14,3 10 6 15 8 W 1023,7 - 0,0
25.05.2020 01:00:00 16,4 14,4 11 6 16 9 W 1023,9 - 0,0
25.05.2020 00:00:00 17,0 14,8 15 8 23 12 W 1024,0 - 0,0
24.05.2020 23:00:00 17,2 14,3 11 6 26 14 W 1023,9 12 0,0
24.05.2020 22:00:00 16,9 14,4 18 10 23 13 W 1023,7 - 0,0
24.05.2020 21:00:00 17,2 14,5 19 10 29 16 W 1023,3 - 0,0
24.05.2020 20:00:00 18,0 14,5 21 11 30 16 W 1023,1 12 0,0
24.05.2020 19:00:00 18,7 14,4 15 8 33 18 W 1023,0 - 0,0
24.05.2020 18:00:00 19,1 14,6 21 12 31 17 W 1022,9 - 0,0
24.05.2020 17:00:00 19,7 14,7 26 14 40 22 W 1022,9 12 0,0
24.05.2020 16:00:00 19,9 14,9 32 18 48 26 W 1023,0 - 0,0
24.05.2020 15:00:00 19,7 15,3 34 18 46 25 W 1022,8 - 0,0
24.05.2020 14:00:00 19,8 15,4 32 17 44 24 W 1023,1 12 0,0
24.05.2020 13:00:00 20,0 15,6 35 19 55 30 W 1023,2 - 0,0
24.05.2020 12:00:00 19,7 15,3 33 18 56 30 W 1023,2 - 0,0
24.05.2020 11:00:00 19,7 16,2 24 13 55 30 W 1023,2 12 0,0
24.05.2020 10:00:00 19,6 16,4 27 15 58 32 W 1023,4 - 0,0
24.05.2020 09:00:00 19,4 16,2 37 20 58 32 W 1022,9 - 0,0
24.05.2020 08:00:00 19,2 17,0 21 11 63 34 W 1022,4 14 0,0
24.05.2020 07:00:00 19,0 18,2 21 11 56 30 W 1021,8 - 0,0
24.05.2020 06:00:00 18,9 18,6 21 11 65 35 W 1021,7 - 0,0
24.05.2020 05:00:00 18,9 18,2 23 12 64 34 W 1021,6 - 0,0
24.05.2020 04:00:00 18,9 18,4 37 20 58 32 W 1022,3 - 0,0
24.05.2020 03:00:00 18,4 17,2 18 10 54 29 W 1022,6 - 0,2
24.05.2020 02:00:00 18,7 18,5 20 11 62 34 W 1022,9 - 0,0
24.05.2020 01:00:00 18,8 18,6 18 10 63 34 W 1023,7 - 0,0
24.05.2020 00:00:00 19,1 18,9 19 10 68 37 WZW 1024,1 - 0,0
23.05.2020 23:00:00 19,2 18,9 19 10 58 32 WZW 1024,2 - 0,0
23.05.2020 22:00:00 18,9 18,4 20 11 55 30 W 1024,3 - 0,0
23.05.2020 21:00:00 19,1 18,6 26 14 65 35 W 1024,2 - 0,0
23.05.2020 20:00:00 19,6 18,3 28 15 52 28 W 1023,8 20 0,0
23.05.2020 19:00:00 20,3 17,9 33 18 45 25 W 1023,9 - 0,0
23.05.2020 18:00:00 21,0 18,4 30 16 42 23 W 1024,2 - 0,0
23.05.2020 17:00:00 21,4 18,4 32 17 49 26 W 1024,4 20 0,0
23.05.2020 16:00:00 21,2 18,4 33 18 45 25 W 1024,9 - 0,0
23.05.2020 15:00:00 22,1 18,5 32 17 44 24 W 1025,4 - 0,0
23.05.2020 14:00:00 22,2 18,2 29 16 39 21 W 1025,9 20 0,0
23.05.2020 13:00:00 21,7 18,1 27 14 35 19 W 1026,5 - 0,0
23.05.2020 12:00:00 20,9 17,1 18 10 31 17 W 1026,5 - 0,0
23.05.2020 11:00:00 20,9 16,9 16 9 29 16 W 1026,5 20 0,0
23.05.2020 10:00:00 20,9 17,9 13 7 20 11 W 1026,5 - 0,0
23.05.2020 09:00:00 20,1 16,9 11 6 18 10 ZW 1026,3 - 0,0
23.05.2020 08:00:00 19,9 15,1 10 5 21 11 W 1026,0 20 0,0
23.05.2020 07:00:00 18,3 15,7 8 4 29 15 WNW 1025,8 - 0,0
23.05.2020 06:00:00 18,6 17,3 19 10 29 16 WZW 1025,2 - 0,0
23.05.2020 05:00:00 18,0 15,8 15 8 26 14 ZW 1025,1 12 0,0
23.05.2020 04:00:00 18,3 17,0 12 6 19 11 ZW 1024,9 - 0,0
23.05.2020 03:00:00 18,2 16,2 10 6 17 9 W 1025,0 - 0,0
23.05.2020 02:00:00 18,3 15,4 11 6 16 8 ZW 1025,2 - 0,0
23.05.2020 01:00:00 18,6 14,7 8 4 12 6 ZW 1025,5 - 0,0
23.05.2020 00:00:00 19,5 14,7 7 4 11 6 ZW 1025,5 - 0,0
22.05.2020 23:00:00 19,9 9,2 6 3 10 5 W 1025,4 - 0,0
22.05.2020 22:00:00 18,3 11,8 4 2 6 3 WZW 1025,5 - 0,0
22.05.2020 21:00:00 19,8 11,3 3 2 5 3 W 1024,9 - 0,0
22.05.2020 20:00:00 22,9 13,1 4 2 11 6 NNW 1024,7 25 0,0
22.05.2020 19:00:00 24,3 13,8 9 5 13 7 ONO 1024,4 - 0,0
22.05.2020 18:00:00 25,0 12,6 11 6 18 10 O 1024,3 - 0,0
22.05.2020 17:00:00 25,9 12,4 10 5 25 13 O 1024,5 - 0,0
22.05.2020 16:00:00 26,2 8,2 9 5 19 10 O 1024,5 - 0,0
22.05.2020 15:00:00 25,3 11,1 13 7 22 12 ONO 1024,7 - 0,0
22.05.2020 14:00:00 24,9 11,5 14 8 29 15 O 1024,7 25 0,0
22.05.2020 13:00:00 24,2 11,2 19 10 29 15 O 1024,8 - 0,0
22.05.2020 12:00:00 23,7 10,0 19 10 36 19 ONO 1025,0 - 0,0
22.05.2020 11:00:00 23,3 10,7 26 14 44 24 ONO 1024,3 18 0,0
22.05.2020 10:00:00 23,2 11,3 25 14 42 23 ONO 1023,8 - 0,0
22.05.2020 09:00:00 22,2 11,0 24 13 35 19 NO 1023,7 - 0,0
22.05.2020 08:00:00 21,2 12,9 13 7 21 11 ONO 1022,9 18 0,0
22.05.2020 07:00:00 18,2 13,3 10 5 19 10 O 1022,2 - 0,0
22.05.2020 06:00:00 16,8 11,5 13 7 20 11 O 1021,5 - 0,0
22.05.2020 05:00:00 16,7 10,3 13 7 19 11 NO 1021,2 15 0,0
22.05.2020 04:00:00 16,8 11,7 17 9 21 12 ONO 1021,0 - 0,0
22.05.2020 03:00:00 16,4 11,8 12 6 18 10 ONO 1021,1 - 0,0
22.05.2020 02:00:00 18,1 14,4 9 5 11 6 W 1020,9 - 0,0
22.05.2020 01:00:00 17,8 13,7 8 5 11 6 WZW 1020,9 - 0,0
22.05.2020 00:00:00 18,3 15,0 6 4 12 7 ZZW 1020,4 - 0,0
21.05.2020 23:00:00 19,4 9,8 6 4 8 4 ONO 1020,2 - 0,0

tt = temperatuur
td = dauwpunt
ff = windsnelheid
fx = windstoten
dd = windrichting
ppp = luchtdruk
vv = zicht
rr = neerslag

Weerstations in de omgeving